Regional Weather Roundup
Issued by NWS Northern Indiana

Home | Current Version | Previous Version | Text Only | Print | Product List | Glossary Off
Versions: 1 2 3 4 5 6 7 8 9 10 11 12 13 14 15 16 17 18 19 20 21 22 23 24 25 26 27 28 29 30 31 32 33 34 35 36 37 38 39 40 41 42 43 44 45 46 47 48 49 50

466
ASUS43 KIWX 120200
RWRIWX

KIWX WEATHER ROUNDUP
NATIONAL WEATHER SERVICE NORTHERN INDIANA
900 PM EST THU FEB 11 2016

NOTE: "FAIR" INDICATES FEW OR NO CLOUDS BELOW 12,000 FEET WITH NO
SIGNIFICANT WEATHER AND/OR OBSTRUCTIONS TO VISIBILITY.

* THESE STATIONS ARE NOT UNDER NWS QUALITY CONTROL. THEY ALSO MAY NOT
  REPORT WEATHER SUCH AS PRECIPITATION OR FOG.

INZ001>027-120300-
NORTHERN INDIANA

CITY           SKY/WX    TMP DP  RH WIND       PRES   REMARKS
GARY*          CLEAR     18   7  62 S3        30.29F
SOUTH BEND     CLOUDY     4   0  83 CALM      30.28S
ELKHART*       CLOUDY    10   3  72 CALM      30.28S
GOSHEN         CLEAR     11   3  70 W3        30.27S
ANGOLA*        CLEAR     16   5  62 W3        30.23S
FORT WAYNE     CLEAR     16   9  74 W6        30.28F WCI   7
PERU/GRISSOM   CLOUDY    16  10  77 SW3       30.27S

$$
INZ028>050-120300-
CENTRAL INDIANA

CITY           SKY/WX    TMP DP  RH WIND       PRES   REMARKS
LAFAYETTE      PTCLDY    19   8  62 CALM      30.31R
KOKOMO*        CLOUDY    16   7  67 W3        30.28F
MUNCIE*        CLOUDY    15   6  67 CALM      30.28F
INDIANAPOLIS   CLOUDY    22   9  57 W5        30.28F WCI  16

$$
MIZ043>046-050>051-056>058-064>065-071>073-077>080-120300-
SOUTHWEST LOWER MICHIGAN

CITY           SKY/WX    TMP DP  RH WIND       PRES   REMARKS
BATTLE CREEK   CLOUDY    17   9  70 W9        30.24S WCI   6
BENTON HARBOR  CLEAR     14   5  67 CALM      30.27F
COLDWATER*     MOCLDY    14   6  69 W5        30.24S WCI   7
HILLSDALE*     MOCLDY    16   5  60 W6        30.21S WCI   8
HOLLAND        CLOUDY    16   7  67 SW6       30.25F WCI   7
GRAND RAPIDS   MOCLDY    17   8  67 W7        30.23F WCI   8
KALAMAZOO      MOCLDY    16   7  67 SW5       30.25S WCI   9
STURGIS*       CLEAR     14   5  69 CALM      30.24S
THREE RIVERS*  CLOUDY    17  10  72 W3        30.26F

$$
OHZ001>008-015>018-024>025-120300-
NORTHWEST OHIO

CITY           SKY/WX    TMP DP  RH WIND       PRES   REMARKS
DEFIANCE       MOCLDY    18  10  71 SW3       30.28S
FINDLAY        CLOUDY    16   8  71 S5        30.26F WCI   9
TOLEDO EXPRESS CLEAR     14   4  64 SW5       30.26F WCI   6
TOLEDO METCALF CLEAR     15   5  64 SW6       30.28F WCI   6
LIMA           CLOUDY    17   9  70 S7        30.26F WCI   8

$$
AND FOR LAKE MICHIGAN COASTAL AND OPEN LAKE BUOY OBSERVATIONS

STATION/POSITION TEMP    WIND        PRES    VSBY  WAVE
                 AIR SEA DIR/SP/G                  HT/PER
                 (F)     (DEG/KT/KT) (MB)    (MI)  (FT/S)
CALUMET HARBOR    21                 1024.9R
MICHIGAN CITY     17     120/  3/  4   N/A
BURNS HARBOR      18     120/  3/  4 1026.1S
SAINT JOSEPH      20     220/  9/ 11 1025.4F

$$
&&




USA.gov is the U.S. government's official web portal to all federal, state and local government web resources and services.